GW4651 Weather Reports


time (UTC)temp
F
wind
direction
speed
knots
gust
knots
rain 1hr
in
rain 24hr
in
rain mn
in
humidity
%
barometer
mb
20260507011606 56 164 0.0 2.6 0.00 0.00 0.00 50 1008.6
20260507011106 56 195 1.7 2.6 0.00 0.00 0.00 49 1008.4
20260507010106 56 133 1.7 2.6 0.00 0.00 0.00 48 1008.2
20260507005605 56 134 1.7 2.6 0.00 0.00 0.00 50 1008.6
20260507005106 56 190 1.7 4.3 0.00 0.00 0.00 50 1008.6
20260507004606 56 144 1.7 2.6 0.00 0.00 0.00 49 1008.5
20260507004106 56 158 1.7 2.6 0.00 0.00 0.00 49 1008.5
20260507003106 56 117 1.7 2.6 0.00 0.00 0.00 48 1008.7
20260507002606 56 134 1.7 2.6 0.00 0.00 0.00 49 1008.7
20260507002106 56 193 2.6 4.3 0.00 0.00 0.00 49 1008.9
20260507001609 57 190 2.6 4.3 0.00 0.00 0.00 48 1008.9
20260507001106 56 83 2.6 4.3 0.00 0.00 0.00 48 1009.0
20260507000608 56 100 2.6 4.3 0.00 0.00 0.00 48 1008.8
20260507000106 56 115 1.7 4.3 0.00 0.00 0.00 49 1009.0
20260506235606 56 177 3.5 5.2 0.00 0.00 0.00 49 1008.7
20260506235107 56 169 2.6 4.3 0.00 0.00 0.00 49 1009.0
20260506234606 56 194 2.6 4.3 0.00 0.00 0.00 49 1008.8
20260506234106 56 154 2.6 4.3 0.00 0.00 0.00 48 1009.0
20260506233606 57 195 1.7 5.2 0.00 0.00 0.00 48 1008.8
20260506232106 57 115 5.2 7.0 0.00 0.00 0.00 46 1008.7
20260506231606 58 116 4.3 7.8 0.00 0.00 0.00 46 1008.7
20260506231106 58 145 5.2 8.7 0.00 0.00 0.00 47 1009.1
20260506230605 58 134 4.3 7.8 0.00 0.00 0.00 47 1008.7
20260506225107 58 121 3.5 7.8 0.00 0.00 0.00 48 1008.8
20260506224605 58 135 5.2 11.3 0.00 0.00 0.00 48 1008.8
20260506224106 58 97 5.2 10.4 0.00 0.00 0.00 49 1008.5
20260506223607 58 120 5.2 13.0 0.00 0.00 0.00 50 1008.6
20260506222105 58 116 5.2 13.0 0.00 0.00 0.00 50 1008.6
20260506221605 58 117 6.1 14.8 0.00 0.00 0.00 51 1008.5
20260506221107 58 133 4.3 8.7 0.00 0.00 0.00 52 1008.5
20260506220606 58 121 6.1 12.2 0.00 0.00 0.00 52 1008.6
20260506215607 58 93 6.1 10.4 0.00 0.00 0.00 53 1008.7
20260506215106 58 103 5.2 10.4 0.00 0.00 0.00 54 1008.7
20260506214606 58 101 8.7 13.9 0.00 0.00 0.00 54 1008.6
20260506214106 58 104 7.0 13.0 0.00 0.00 0.00 53 1008.8
20260506212607 58 113 5.2 10.4 0.00 0.00 0.00 53 1008.8
20260506212106 58 109 5.2 13.0 0.00 0.00 0.00 52 1008.6
20260506211607 59 110 6.1 8.7 0.00 0.00 0.00 51 1008.6
20260506211106 59 123 5.2 10.4 0.00 0.00 0.00 50 1008.5
20260506205606 59 131 3.5 7.8 0.00 0.00 0.00 50 1008.4
20260506205106 59 121 5.2 7.8 0.00 0.00 0.00 49 1008.2
20260506204606 59 128 6.1 11.3 0.00 0.00 0.00 48 1008.3
20260506204106 60 144 5.2 7.8 0.00 0.00 0.00 49 1008.0
20260506203106 60 119 4.3 7.0 0.00 0.00 0.00 49 1008.0
20260506202606 60 136 4.3 6.1 0.00 0.00 0.00 48 1007.9
20260506202106 61 165 5.2 7.8 0.00 0.00 0.00 47 1007.7
20260506201106 60 132 4.3 7.0 0.00 0.00 0.00 47 1007.5
20260506200606 61 107 4.3 7.0 0.00 0.00 0.00 46 1007.4
20260506200106 61 149 4.3 6.1 0.00 0.00 0.00 46 1007.3
20260506195605 61 136 3.5 6.1 0.00 0.00 0.00 46 1007.3
20260506194606 61 157 1.7 5.2 0.00 0.00 0.00 47 1007.3
20260506194106 61 158 2.6 5.2 0.00 0.00 0.00 47 1007.3
20260506193106 61 149 1.7 6.1 0.00 0.00 0.00 46 1007.1
20260506192605 62 156 2.6 5.2 0.00 0.00 0.00 46 1007.0
20260506192107 62 168 1.7 4.3 0.00 0.00 0.00 46 1006.9
20260506191607 62 144 1.7 4.3 0.00 0.00 0.00 46 1006.7
20260506191107 62 173 1.7 2.6 0.00 0.00 0.00 46 1006.6
20260506190606 63 182 1.7 2.6 0.00 0.00 0.00 45 1006.5
20260506185605 64 189 3.5 5.2 0.00 0.00 0.00 44 1006.3
20260506185105 64 215 1.7 6.1 0.00 0.00 0.00 44 1006.2
20260506184605 65 188 3.5 6.1 0.00 0.00 0.00 43 1006.0
20260506184106 66 200 4.3 7.0 0.00 0.00 0.00 42 1005.7
20260506183106 66 200 4.3 8.7 0.00 0.00 0.00 41 1005.8
20260506182606 66 201 6.1 10.4 0.00 0.00 0.00 40 1005.8
20260506182105 67 210 6.1 10.4 0.00 0.00 0.00 40 1005.5
20260506181605 67 214 5.2 10.4 0.00 0.00 0.00 41 1005.6
20260506181105 67 226 4.3 8.7 0.00 0.00 0.00 41 1005.4
20260506180606 66 258 5.2 7.8 0.00 0.00 0.00 41 1005.8
20260506180106 66 267 3.5 6.1 0.00 0.00 0.00 39 1006.0
20260506175606 66 300 1.7 4.3 0.00 0.00 0.00 40 1006.0
20260506175105 65 317 2.6 5.2 0.00 0.00 0.00 40 1006.1
20260506174605 65 274 2.6 5.2 0.00 0.00 0.00 40 1006.0
20260506173607 65 268 2.6 5.2 0.00 0.00 0.00 39 1006.1
20260506173106 65 293 2.6 6.1 0.00 0.00 0.00 39 1006.0
20260506172607 66 303 4.3 6.1 0.00 0.00 0.00 38 1006.0
20260506172105 65 347 2.6 5.2 0.00 0.00 0.00 38 1005.9